[[{"header":{"parameterUnit":"m.s-1","parameterCategory":1,"la1":30.2991,"la2":30.254,"lo1":-89.0895,"lo2":-89.0444,"dy":0.0017,"dx":0.0017,"nx":28,"ny":28,"refTime":"2024-07-20T21:00:00:Z","depth":0,"parameterNumber":2,"parameterNumberName":"U-component_of_WINDS"},"data":[0,0,0,0,0,0,0,0,0,0,0,0,0,0,0,0,0,0,0,0,0,0,0,0,0,0,0,0,0,0,0,0,0,0,0,0,0,0,0,0,0,0,0,0,0,0,0,0,0,0,0,0,0,0,0,0,0,0,2.0459,2.0459,0,2.0521,2.0521,2.0522,2.0557,2.0557,2.0557,2.0557,2.0617,2.0618,2.062,0,0,0,0,0,0,0,0,0,0,0,0,0,2.0365,2.0367,2.0458,2.0459,2.046,2.052,2.0521,2.0522,2.0557,2.0557,2.0557,2.0557,2.0617,2.0618,2.062,0,0,0,0,0,0,0,0,0,0,0,0,0,2.0414,2.0367,2.0458,2.0485,2.0488,2.052,2.0521,2.0522,2.0557,2.0557,2.0557,2.0557,2.0616,2.0618,2.062,2.063,0,0,2.0627,2.0628,0,0,0,0,0,0,0,0,2.0411,2.0418,2.048,2.0483,2.0486,2.0531,2.051,2.0558,2.0557,2.0531,2.0557,2.0558,2.0588,2.0593,2.0604,2.0633,2.0635,2.0627,2.0629,2.063,2.063,0,0,0,0,0,0,0,2.0408,2.0415,2.0483,2.0481,2.0485,2.0492,2.0499,2.052,2.0557,2.0533,2.0536,2.0543,2.059,2.0601,2.0605,2.0636,2.0627,2.0629,2.063,2.0631,2.0674,2.0674,0,0,0,0,0,0,2.0401,2.0412,2.0481,2.0485,2.0449,2.0493,2.0501,2.0517,2.0557,2.0564,2.0542,2.0544,2.0598,2.0603,2.0608,2.062,2.0629,2.0632,2.0633,2.0674,2.0674,2.0674,0,0,0,0,0,0,2.0399,2.0407,2.0478,2.0449,2.0459,2.0495,2.0512,2.0518,2.053,2.0565,2.0571,2.0548,2.0598,2.0604,2.0624,2.0623,2.0633,2.0635,2.0674,2.0674,2.0674,2.0647,0,0,0,0,0,0,2.0396,2.0406,2.0411,2.0449,2.046,2.0495,2.0512,2.0519,2.0534,2.0536,2.0571,2.0577,2.0599,2.062,2.0626,2.0626,2.0636,2.0675,2.0674,2.0674,2.0648,2.0646,2.0644,0,0,0,0,0,2.0393,2.0401,2.0411,2.042,2.0468,2.0495,2.0502,2.0527,2.0534,2.0538,2.056,2.0576,2.0622,2.0622,2.0629,2.063,2.0675,2.0674,2.0674,2.0649,2.0646,2.0644,0,0,0,0,0,0,2.0362,2.0407,2.0419,2.044,2.0464,2.0501,2.0508,2.0524,2.0545,2.0547,2.0576,2.0584,2.06,2.0617,2.0616,2.064,2.065,2.0651,2.0629,2.0626,2.0624,2.062,2.0638,0,0,0,0,0,2.0357,2.0377,2.0415,2.043,2.0441,2.0472,2.0485,2.0503,2.0528,2.0538,2.0562,2.0584,2.0604,2.0616,2.0636,2.065,2.0657,2.0654,2.0652,2.065,2.065,2.0657,2.0655,2.0672,2.0672,2.0672,0,0,2.0349,2.0376,2.0386,2.0424,2.0445,2.0462,2.0481,2.0499,2.0512,2.054,2.056,2.0578,2.0605,2.0622,2.063,2.0636,2.0647,2.0649,2.0648,2.0649,2.0656,2.0655,2.0653,2.0672,2.0672,2.0672,0,0,2.0342,2.0365,2.0379,2.0399,2.043,2.045,2.0453,2.0488,2.0501,2.0522,2.0543,2.0558,2.0591,2.0609,2.0623,2.062,2.0634,2.0625,2.0614,2.062,2.0619,2.0618,2.0616,2.0615,2.0625,2.0625,2.0625,0,2.0327,2.0357,2.0384,2.0402,2.0417,2.0443,2.0456,2.0474,2.0509,2.0518,2.0524,2.0565,2.0585,2.0606,2.0605,2.0615,2.0618,2.0622,2.0617,2.0616,2.0616,2.0614,2.0613,2.0624,2.0624,2.0624,2.0624,0,2.0336,2.0356,2.0363,2.0397,2.0413,2.0428,2.0456,2.0468,2.0483,2.0502,2.0521,2.0546,2.0571,2.0577,2.0592,2.0599,2.0601,2.0612,2.0623,2.0612,2.0611,2.061,2.0622,2.0623,2.0623,2.0623,0,0,2.0313,2.0361,2.0363,2.0378,2.0412,2.0427,2.0442,2.0467,2.0476,2.0498,2.0511,2.0537,2.0547,2.0562,2.0579,2.0585,2.0579,2.0594,2.0595,2.059,2.0585,2.0576,2.0575,2.0588,2.0588,2.0588,2.0582,0,2.0311,2.0341,2.0365,2.0385,2.0402,2.0426,2.0439,2.046,2.0478,2.0494,2.0513,2.0531,2.0543,2.0552,2.0558,2.0578,2.0578,2.0579,2.0598,2.0599,2.0591,2.0575,2.0566,2.056,2.0582,2.0582,2.0582,0,2.0314,2.0335,2.0357,2.0388,2.0396,2.0407,2.043,2.0446,2.0469,2.0481,2.0497,2.0515,2.0529,2.0538,2.0558,2.0558,2.0567,2.0577,2.0578,2.058,2.059,2.0576,2.0558,2.0557,2.0582,2.0582,2.0582,0,2.0293,2.0328,2.0345,2.0357,2.0394,2.04,2.0416,2.044,2.0452,2.0472,2.048,2.0501,2.0512,2.0527,2.0548,2.0553,2.0565,2.0576,2.0574,2.0573,2.0575,2.0575,2.0558,2.0582,2.0582,2.0582,2.0582,0,2.0289,2.0301,2.0336,2.0347,2.036,2.0386,2.0398,2.0415,2.0436,2.0449,2.047,2.0481,2.0509,2.0523,2.054,2.0553,2.0558,2.0567,2.0571,2.0565,2.0563,2.0571,2.0571,2.0582,2.0582,2.0582,2.0582,0,2.0269,2.0294,2.0314,2.0346,2.0354,2.0362,2.0389,2.0399,2.0417,2.0432,2.0437,2.0465,2.0482,2.0505,2.053,2.0541,2.0551,2.0558,2.0543,2.0546,2.0542,2.0541,2.0529,2.0528,2.0553,2.0552,2.0552,0,2.0264,2.0274,2.0307,2.0317,2.0332,2.0348,2.0361,2.0386,2.0398,2.0424,2.043,2.0449,2.0466,2.0491,2.0513,2.0531,2.0538,2.0532,2.0541,2.0533,2.0536,2.0535,2.0536,2.053,2.053,2.0529,2.0529,0,2.0253,2.0264,2.0282,2.0303,2.0318,2.0335,2.0354,2.0361,2.0389,2.0401,2.0419,2.0432,2.0456,2.0474,2.0494,2.0508,2.0522,2.0526,2.0526,2.052,2.051,2.0514,2.0537,2.0526,2.0527,2.0527,2.0527,2.0527,2.024,2.0249,2.0273,2.0291,2.0308,2.0324,2.0334,2.0353,2.0369,2.0391,2.0404,2.0421,2.0442,2.0471,2.0484,2.0496,2.0502,2.0503,2.0503,2.0502,2.0499,2.0508,2.05,2.05,2.05,2.05,2.05,0,2.0229,2.0245,2.0262,2.0287,2.03,2.0313,2.0334,2.0344,2.0359,2.0377,2.0392,2.0412,2.0428,2.045,2.0468,2.0473,2.048,2.0477,2.0476,2.0479,2.0494,2.0491,2.0471,2.0471,2.0471,2.0471,2.0471,2.0471,2.0225,2.024,2.0253,2.0276,2.0291,2.0308,2.0319,2.0333,2.0347,2.0368,2.0382,2.0396,2.0415,2.0434,2.0449,2.0455,2.046,2.0454,2.0462,2.0476,2.0478,2.0481,2.0478,2.0456,2.0456,2.0446,2.0446,2.0446]},{"header":{"parameterUnit":"m.s-1","parameterCategory":1,"la1":30.2991,"la2":30.254,"lo1":-89.0895,"lo2":-89.0444,"dy":0.0017,"dx":0.0017,"nx":28,"ny":28,"refTime":"2024-07-20T21:00:00:Z","depth":0,"parameterNumber":3,"parameterNumberName":"V-component_of_WINDS"},"data":[0,0,0,0,0,0,0,0,0,0,0,0,0,0,0,0,0,0,0,0,0,0,0,0,0,0,0,0,0,0,0,0,0,0,0,0,0,0,0,0,0,0,0,0,0,0,0,0,0,0,0,0,0,0,0,0,0,0,2.0411,2.0412,0,2.051,2.0511,2.0512,2.059,2.059,2.0591,2.0592,2.0692,2.0694,2.0696,0,0,0,0,0,0,0,0,0,0,0,0,0,2.0287,2.0289,2.0411,2.0412,2.0413,2.0509,2.0511,2.0512,2.0589,2.059,2.0591,2.0592,2.0691,2.0693,2.0696,0,0,0,0,0,0,0,0,0,0,0,0,0,2.0359,2.029,2.041,2.0463,2.0469,2.0509,2.0511,2.0513,2.0589,2.059,2.0591,2.0593,2.069,2.0693,2.0696,2.0691,0,0,2.0705,2.0706,0,0,0,0,0,0,0,0,2.0355,2.0363,2.0454,2.046,2.0466,2.0538,2.0504,2.0572,2.0589,2.0543,2.0592,2.0593,2.064,2.0647,2.0663,2.0696,2.07,2.0705,2.0707,2.0708,2.0709,0,0,0,0,0,0,0,2.035,2.036,2.045,2.0455,2.0463,2.0482,2.0493,2.0517,2.0584,2.0548,2.0553,2.0564,2.0643,2.066,2.0666,2.0702,2.0705,2.0708,2.071,2.0711,2.0737,2.0736,0,0,0,0,0,0,2.0337,2.0355,2.0447,2.0453,2.0412,2.0483,2.0496,2.0514,2.0584,2.0596,2.0563,2.0567,2.0654,2.0662,2.067,2.067,2.0708,2.0711,2.0713,2.0738,2.0737,2.0736,0,0,0,0,0,0,2.0334,2.0344,2.0443,2.0406,2.0419,2.0484,2.0504,2.0515,2.0532,2.0596,2.0608,2.0568,2.0656,2.0665,2.0686,2.0674,2.0712,2.0715,2.0739,2.0738,2.0736,2.0669,0,0,0,0,0,0,2.033,2.0343,2.0342,2.0405,2.0421,2.0457,2.0503,2.0516,2.0537,2.0544,2.0604,2.0615,2.0657,2.0681,2.0689,2.0679,2.0717,2.0741,2.0739,2.0737,2.0673,2.0666,2.066,0,0,0,0,0,2.0325,2.0319,2.0341,2.0352,2.0422,2.0456,2.0466,2.0515,2.0536,2.0536,2.0576,2.0613,2.0674,2.0682,2.0692,2.0683,2.0742,2.0739,2.0737,2.0676,2.0667,2.066,0,0,0,0,0,0,2.0252,2.0328,2.0354,2.0368,2.0405,2.0469,2.0471,2.0504,2.0536,2.0541,2.0601,2.0614,2.0628,2.0657,2.0665,2.0682,2.0712,2.0712,2.0663,2.0655,2.0649,2.0642,2.072,0,0,0,0,0,2.0237,2.026,2.0325,2.033,2.0348,2.0406,2.0423,2.0458,2.0499,2.0515,2.0557,2.0595,2.0624,2.0641,2.067,2.0677,2.0692,2.0676,2.0669,2.0663,2.0662,2.0669,2.0663,2.0728,2.0728,2.0728,0,0,2.0208,2.0252,2.0262,2.0317,2.035,2.0372,2.0419,2.0439,2.0456,2.0518,2.0541,2.0572,2.0619,2.0633,2.0641,2.0658,2.0647,2.066,2.0655,2.0657,2.0666,2.066,2.0654,2.0726,2.0726,2.0727,0,0,2.0165,2.02,2.021,2.0242,2.0292,2.033,2.0332,2.0391,2.0415,2.0439,2.0486,2.0506,2.0553,2.0585,2.0607,2.0575,2.061,2.0583,2.0549,2.0555,2.055,2.0545,2.0535,2.0531,2.0582,2.0581,2.0581,0,2.0122,2.0157,2.021,2.0228,2.0251,2.0308,2.0318,2.0347,2.0403,2.0417,2.0435,2.0496,2.0531,2.0553,2.0546,2.0561,2.0566,2.0577,2.0546,2.0542,2.0539,2.053,2.0526,2.0578,2.0578,2.0579,2.0579,0,2.0102,2.0126,2.0127,2.0181,2.0204,2.0217,2.0272,2.0288,2.0321,2.0357,2.038,2.0425,2.0464,2.0472,2.0504,2.0499,2.0508,2.0535,2.0567,2.0529,2.0521,2.0518,2.0573,2.0574,2.0575,2.0576,0,0,2.0018,2.01,2.01,2.0125,2.0184,2.0203,2.0219,2.0259,2.0272,2.0308,2.0324,2.0362,2.0388,2.0413,2.0448,2.0453,2.0427,2.048,2.0482,2.047,2.0426,2.0407,2.0402,2.045,2.045,2.0449,2.0423,0,1.9986,2.0019,2.0067,2.0084,2.0107,2.0161,2.0175,2.0212,2.0246,2.027,2.0308,2.0335,2.0366,2.0381,2.0389,2.0429,2.042,2.0431,2.0466,2.0466,2.0454,2.0398,2.0377,2.035,2.042,2.042,2.0419,0,1.9953,1.9987,2.0007,2.0064,2.0076,2.0088,2.0128,2.015,2.0193,2.0218,2.0245,2.0284,2.0304,2.0331,2.036,2.0367,2.0384,2.0405,2.0405,2.0412,2.0441,2.0404,2.0343,2.0339,2.0415,2.0416,2.0416,0,1.9891,1.9942,1.9961,1.998,2.0047,2.0055,2.0083,2.0127,2.0148,2.0182,2.0197,2.0232,2.0252,2.0279,2.0327,2.0342,2.035,2.0381,2.0372,2.0371,2.0372,2.0372,2.0314,2.038,2.038,2.038,2.0381,0,1.9851,1.9861,1.9934,1.9945,1.9958,2.0013,2.0024,2.0057,2.0096,2.0115,2.0163,2.018,2.0241,2.0264,2.0301,2.032,2.0328,2.0349,2.0359,2.0345,2.0343,2.0358,2.0362,2.0379,2.038,2.038,2.038,0,1.9785,1.9834,1.9858,1.9919,1.9935,1.9942,1.9994,2.0008,2.0044,2.0067,2.0076,2.0133,2.0164,2.0214,2.0258,2.0283,2.0295,2.0311,2.0281,2.0287,2.0275,2.0276,2.0226,2.0223,2.029,2.0289,2.0288,0,1.9757,1.9766,1.9829,1.9845,1.9872,1.9897,1.9918,1.9972,1.9992,2.0042,2.0049,2.0083,2.0114,2.016,2.0205,2.024,2.0258,2.0238,2.0263,2.025,2.0259,2.0258,2.026,2.0232,2.0231,2.0231,2.023,0,1.9703,1.9726,1.9756,1.9793,1.9817,1.9849,1.9883,1.9894,1.9955,1.9975,2.0007,2.003,2.0076,2.011,2.0151,2.018,2.0215,2.0221,2.0221,2.0208,2.0191,2.0202,2.0266,2.0223,2.0223,2.0224,2.0224,2.0225,1.9656,1.9667,1.9713,1.9744,1.9775,1.9806,1.9822,1.986,1.9888,1.993,1.9959,1.9989,2.0033,2.0091,2.0118,2.0142,2.0158,2.0157,2.0158,2.0157,2.0152,2.0186,2.015,2.015,2.015,2.0151,2.0151,0,1.9606,1.9638,1.9665,1.9712,1.9736,1.9767,1.9806,1.9825,1.9851,1.9888,1.9917,1.9954,1.9986,2.0034,2.0071,2.0081,2.0098,2.0089,2.0089,2.0096,2.0136,2.0133,2.0074,2.0074,2.0074,2.0075,2.0075,2.0075,1.9582,1.9603,1.9632,1.9668,1.97,1.973,1.975,1.9779,1.9809,1.9848,1.9876,1.9907,1.9949,1.9988,2.002,2.0033,2.0045,2.0031,2.0049,2.0086,2.0093,2.0099,2.0097,2.0032,2.0032,2.0007,2.0007,2.0007]}]]